Regional Weather Roundup
Issued by NWS Grand Forks, ND

Home | Current Version | Previous Version | Text Only | Print | Product List | Glossary On
Versions: 1 2 3 4 5 6 7 8 9 10 11 12 13 14 15 16 17 18 19 20 21 22 23 24 25 26 27 28 29 30 31 32 33 34 35 36 37 38 39 40 41 42 43 44 45 46 47 48 49 50
000
ASUS43 KFGF 220131
RWRFGF
PRAIRIE TO PINES  WEATHER ROUNDUP
NATIONAL WEATHER SERVICE EASTERN NORTH DAKOTA/GRAND FORKS ND
800 PM CDT TUE OCT 21 2014

 **SATELLITE DATA USED TO AUGMENT SKY COVER AT AUTOMATED STATIONS**
 *****  WEATHER ACROSS EASTERN NORTH DAKOTA  *****

CITY           SKY/WX    TMP DP  RH WIND       PRES   REMARKS
GRAND FORKS    CLEAR     58  41  53 SE25G32   29.85R
GRAND FRKS AFB CLEAR     58  43  57 SE21G28   29.84R
GRAND FRKS NWS   N/A     54 N/A N/A S16         N/A
DEVILS LAKE    CLEAR     61  43  51 S24G30    29.73S
FARGO          CLEAR     59  41  51 SE24G38   29.90S
WAHPETON ARPT  CLEAR     55  37  50 SE18      29.95S
$$

 ***** WEATHER ACROSS CENTRAL AND WESTERN NORTH DAKOTA  *****

CITY           SKY/WX    TMP DP  RH WIND       PRES   REMARKS
BISMARCK       CLEAR     72  44  36 SE18      29.67R
MINOT          CLEAR     60  44  55 E6        29.60F
JAMESTOWN      CLEAR     63  44  50 SE20      29.78R
MINOT AFB      CLEAR     57  47  67 E7        29.59F
GARRISON         N/A     66  48  52 SE6       29.62S
WILLISTON      CLEAR     53  42  66 N3        29.57S HAZE
DICKINSON      CLEAR     61  44  53 S10       29.61R
HETTINGER      CLEAR     65  43  44 SE9       29.66R
$$

 *****  OTHER AIRPORT OBSERVATIONS IN OUR AREA  *****

CITY           SKY/WX    TMP DP  RH WIND       PRES   REMARKS
WALHALLA         N/A     59  41  51 SE18G25   29.78S
GRAFTON AIRPOR FAIR      55  41  58 SE24G31   29.83S
VALLEY CITY AR FAIR      59  41  51 SE20G29   29.84R
CANDO          FAIR      57  45  62 SE17      29.73S
CAVALIER APRT  FAIR      57  41  54 SE16G29   29.81S
GWINNER        CLEAR     61  43  51 SE21      29.88S
SHEYENNE NWR     N/A     60  40  48 SE21      29.95S
ROLLA          FAIR      57  43  58 S13       29.73S
 ***** THE ABOVE OBSERVATIONS ARE NON NWS ARE NOT QUALITY
       CONTROLLED AND MAY MIS-REPORT RAIN FOR SNOW...
$$

  *****  WEATHER ACROSS NORTHERN MINNESOTA  *****

CITY           SKY/WX    TMP DP  RH WIND       PRES   REMARKS
FLAG ISLAND    CLEAR     48  39  71 SE22      29.96S
WARROAD        CLEAR     50  39  66 SE15G24   29.96S
ROSEAU         CLEAR     52  39  62 SE16      29.93S
HALLOCK        CLEAR     55  39  54 SE17      29.85S
THF RVR FALLS  CLEAR     54  37  54 SE15      29.92R
BAUDETTE       CLEAR     47  36  65 SE12G20   30.00S
WASKISH        CLEAR     46  37  71 SE10G16   30.02S
CROOKSTON      CLEAR     55  41  58 S23G31    29.90S
STEPHEN NDAWN    N/A     55  41  58 S15         N/A
GREENBUSH NDAW   N/A     54  39  58 SE16        N/A
$$
  *****  WEATHER ACROSS CENTRAL AND WEST MINNESOTA  *****

CITY           SKY/WX    TMP DP  RH WIND       PRES   REMARKS
FOSSTON        CLEAR     52  37  58 SE15G23   29.96S
BEMIDJI        CLEAR     49  38  65 SE14      30.03S
PARK RAPIDS    CLEAR     50  37  61 SE17      30.05R
ELBOW LAKE     FAIR      55  41  60 SE17G26   29.99S
WADENA         CLEAR     48  39  71 SE14      30.05S
DETROIT LAKES  CLEAR     52  41  66 SE16G25   30.00S
MOORHEAD       CLEAR     57  43  58 SE21G26   29.92S
FERGUS FALLS   CLEAR     55  37  50 SE17G23   29.99S
MORRIS MN      CLEAR     55  41  58 SE17      30.00S
STAPLES        CLEAR     48  37  66 SE8       30.08R
$$
  *****  WEATHER ELSEWHERE ACROSS MINNESOTA  *****

CITY           SKY/WX    TMP DP  RH WIND       PRES   REMARKS
DULUTH         PTCLDY    41  37  86 E13       30.18R
INTRNTL FALLS  CLEAR     41  34  76 SE14      30.08F
ELY            CLEAR     34  30  86 SE6       30.18R
CLOQUET        CLEAR     39  37  93 E6        30.17S
WHEATON        CLEAR     55  39  54 SE21G26   29.97S
BRAINERD       CLEAR     48  37  65 SE8       30.12R
HIBBING        CLEAR     38  33  82 SE12      30.16R
ALEXANDRIA     CLEAR     52  41  66 SE16      30.06R
SAINT CLOUD    FAIR      53  38  56 SE9       30.12R
MINNEAPOLIS    CLEAR     52  39  61 SE10      30.15S
$$

  *****  WEATHER ACROSS SOUTH DAKOTA  *****

CITY           SKY/WX    TMP DP  RH WIND       PRES   REMARKS
SIOUX FALLS    CLEAR     66  42  41 SE17      29.99R
BROOKINGS      NOT AVBL
WATERTOWN      CLEAR     63  42  46 SE14      29.94R
HURON          CLEAR     69  39  33 SE9       29.88R
SISSETON         N/A     59  42  53 S14       29.93R
ABERDEEN       CLEAR     67  44  43 SE16      29.84R
MITCHELL         N/A     68  42  38 SE15      29.91R
PIERRE         CLEAR     71  36  27 SE16      29.76R
MOBRIDGE       PTCLDY    72  41  32 SE20      29.70R
RAPID CITY     PTCLDY    68  46  45 S12       29.74R
$$

  *****  SOME WEATHER IN NEARBY STATES *****

CITY           SKY/WX    TMP DP  RH WIND       PRES   REMARKS
GLASGOW MT     CLOUDY    62  42  47 W17       29.64R
GREAT FALLS MT LGT RAIN  45  42  89 S10       29.84R
CHEYENNE WY    CLOUDY    60  37  42 NW10      29.97S
SCOTTSBLUFF NE MOCLDY    67  46  47 CALM      29.87R
OMAHA NE       CLEAR     62  39  42 SE12      30.04R
DES MOINES IA  FAIR      59  42  53 E10       30.13S
DAVENPORT IA   CLEAR     46  36  68 E9        30.22R
CHICAGO IL     MOCLDY    47  37  68 N8        30.24R
EAU CLAIRE WI  CLEAR     45  35  68 E7        30.21R
LA CROSSE WI   CLEAR     49  37  63 E7        30.22R
$$

  *****  SOME NATIONAL WEATHER *****

CITY           SKY/WX    TMP DP  RH WIND       PRES   REMARKS
LA GUARDIA NY  MOCLDY    62  53  72 VRB5      29.89R
RALEIGH NC     MOCLDY    63  39  41 N7G21     29.92R
ATLANTA GA     CLEAR     64  47  53 NW8       30.00R
NEW ORLEANS LA CLEAR     71  55  56 CALM      30.00R
OKLAHOMA CITY  CLEAR     68  58  70 SE8       30.04R
ALBUQUERQUE NM PTCLDY    64  45  49 S10       30.06R
SALT LAKE CITY CLOUDY    58  22  24 NW8       30.02S
LOS ANGELES CA PTCLDY    69  63  81 W8        29.84F
BOISE ID       PTCLDY    58  31  35 CALM      30.04R
SEATTLE WA     MOCLDY    59  47  64 S10       29.88F
$$

*** WEATHER ACROSS MANITOBA...SASKATCHEWAN AND ONTARIO ***
                ***ONTARIO***

CITY           SKY/WX    TMP DP  RH WIND       PRES   REMARKS
GERALDTON      CLEAR     32  28  86 SE2       30.27S
THUNDER BAY    PTCLDY    34  30  86 E8        30.28S
SIOUX LOOKOUT  CLEAR     41  34  75 S12G20    30.10S
TORONTO        LGT RAIN  43  41  93 N15G24    30.12R
BIG TROUT LK   CLEAR     43  36  75 S12G18    29.99S
PICKLE LAKE    CLEAR     41  30  65 S13       30.09F
DRYDEN         CLEAR     41  34  75 S12       30.08R
KENORA         CLEAR     43  36  75 SE16G25   29.99F
$$
                *** MANITOBA***

CITY           SKY/WX    TMP DP  RH WIND       PRES   REMARKS
BRANDON        CLEAR     52  41  66 E9        29.69F
DAUPHIN        CLEAR     54  43  66 SE12      29.67S
ISLAND LAKE    CLEAR     48  37  66 SE14G21   29.81F
PILOT MOUND    NOT AVBL
THE PAS        PTCLDY    50  43  76 SE17      29.57R
THOMPSON       PTCLDY    50  43  76 S9        29.62F
WINNIPEG       CLEAR     54  39  58 SE18G24   29.82F
LYNN LAKE      CLEAR     46  43  87 E2        29.54R
CHURCHILL      CLOUDY    41  39  93 SW6       29.62F
GILLAM         CLEAR     52  39  62 S12G18    29.66F
$$
                ***SASKATCHEWAN***

CITY           SKY/WX    TMP DP  RH WIND       PRES   REMARKS
ESTEVAN        PTCLDY    54  43  66 E7        29.59S
KINDERSLEY     CLOUDY    52  41  66 NW12      29.62R
LLOYDMINSTER   MOCLDY    52  37  58 NW7       29.64R
PRINCE ALBERT  CLOUDY    54  45  71 VRB2      29.53S
REGINA         MOCLDY    59  45  58 SE14G22   29.57S
YORKTON        CLEAR     55  43  62 SE10      29.61S
N. BATTLEFORD  CLOUDY    55  39  54 W13       29.62R
LA RONGE       MOCLDY    50  39  66 NW3       29.53S
SASKATOON      MOCLDY    57  39  51 NE6       29.54S
SWIFT CURRENT  MOCLDY    57  39  51 W10       29.59R
$$
NOTE: THESE ARE AUTOMATED STATIONS WITH LIMITED QUALITY CONTROL
      "FAIR" INDICATES FEW OR NO CLOUDS BELOW 12,000 FEET WITH NO
      SIGNIFICANT WEATHER AND/OR OBSTRUCTIONS TO VISIBILITY.
      SKY/WX - SKY CONDITION AND SIGNIFICANT WEATHER.
      TMP - AIR TEMPERATURE.    DP   - DEWPOINT TEMPERATURE.
      RH  - RELATIVE HUMIDITY.  PRES - PRESSURE.
      HX  - HEAT INDEX.         WCI  - WIND CHILL INDEX.
$



USA.gov is the U.S. government's official web portal to all federal, state and local government web resources and services.